Regional Weather Roundup
Issued by NWS Jackson, KY

Home | Current Version | Previous Version | Graphics & Text | Print | Product List | Glossary On
Versions: 1 2 3 4 5 6 7 8 9 10 11 12 13 14 15 16 17 18 19 20 21 22 23 24 25 26 27 28 29 30 31 32 33 34 35 36 37 38 39 40 41 42 43 44 45 46 47 48 49 50
000
ASUS43 KJKL 300810
RWRJKL

EAST KENTUCKY HOURLY WEATHER ROUNDUP
NATIONAL WEATHER SERVICE JACKSON KY
400 AM EDT MON MAR 30 2015

NOTE: "FAIR" INDICATES FEW OR NO CLOUDS BELOW 12,000 FEET WITH
NO SIGNIFICANT WEATHER AND/OR OBSTRUCTIONS TO VISIBILITY.

* THESE REPORTS ARE NOT UNDER NWS QUALITY CONTROL AND MAY NOT
  REPORT WEATHER SUCH AS PRECIPITATION AND FOG.

KYZ079-080-083-085-087-088-110-112-115-119-120-300900
...EASTERN KENTUCKY...

CITY           SKY/WX    TMP DP  RH WIND       PRES   REMARKS
JACKSON        LGT RAIN  45  41  86 SW8       30.01F
LONDON         RAIN      47  40  76 SW3       30.05F
SOMERSET*      DRIZZLE   45  43  93 SW3       30.06F
MONTICELLO*    CLOUDY    48  45  90 SW8       30.08F
MIDDLESBORO*   LGT RAIN  46  45  95 CALM      30.05S
HAZARD APT*    RAIN      46  41  81 SW8       30.02F
BLACK MTN*       N/A     36  36 100 SW7         N/A  WCI  30
PIKEVILLE APT* LGT RAIN  45  41  87 SW6       30.00F
BIG SANDY*     DRIZZLE   47  41  80 W12G20    30.00F
MOREHEAD APT*  CLOUDY    48  43  81 SW10G17   30.00F
$$

KYZ035-036-041-042-044-050-067-078-099-300900
...CENTRAL KENTUCKY...

CITY           SKY/WX    TMP DP  RH WIND       PRES   REMARKS
MT STERLING*   CLOUDY    48  43  81 W13G22    30.00F
FLEMING/MASON* CLOUDY    46  43  87 W9        29.97F
DANVILLE*      CLOUDY    45  43  93 SW9       30.03F
RICHMOND*      CLOUDY    46  43  87 SW13      30.01F
LEXINGTON      CLOUDY    47  42  83 SW7       29.99F
FRANKFORT      CLOUDY    49  42  77 W6        29.98F
$$

KYZ091>093-OHZ055-061-077-WVZ005-015-034-035-042-300900
...SOUTHERN OHIO/WEST VIRGINIA...

CITY           SKY/WX    TMP DP  RH WIND       PRES   REMARKS
COVINGTON      MOCLDY    48  41  76 NW18      29.97S
COLUMBUS       CLOUDY    44  39  82 W9        29.90S
DAYTON         MOCLDY    44  38  79 W15       29.94S
WILMINGTON     MOCLDY    45  39  79 W17G28    29.93S
HUNTINGTON     CLOUDY    48  41  76 SW14G24   29.96F
CHARLESTON     CLOUDY    49  34  56 S12       29.96F
PINEVILLE*     MIX PCPN  43  43 100 MISG      30.06F
BECKLEY        LGT RAIN  39  34  82 W5        29.99F
BLUEFIELD      LGT RAIN  42  34  73 W16G30    30.01R
$$

VAZ002-007-008-TNZ017-027-036-066-071-300900
...SOUTHWEST VIRGINIA/EAST TENNESSEE...

CITY           SKY/WX    TMP DP  RH WIND       PRES   REMARKS
WISE*          LGT RAIN  43  34  70 SW15      30.02F
JONESVILLE*    LGT RAIN  46  41  81 SW3       30.07F
ABINGDON*      LGT RAIN  47  19  34 NW5       30.05R
BRISTOL        LGT RAIN  44  34  67 N3        30.05S
KNOXVILLE      CLOUDY    55  32  41 W15       30.02F
OAK RIDGE      LGT RAIN  53  38  56 W7G17     30.07F
CROSSVILLE     LGT RAIN  47  43  86 W7        30.08R FOG
NASHVILLE      CLOUDY    50  48  93 CALM      30.06F
$$

...KEY TO REMARKS...
VSB - VISIBILITY IN MILES
WCI - WIND CHILL INDEX
HX  - HEAT INDEX

$$



USA.gov is the U.S. government's official web portal to all federal, state and local government web resources and services.